Time,TemperatureF,DewpointF,PressureIn,WindDirection,WindDirectionDegrees,WindSpeedMPH,WindSpeedGustMPH,Humidity,HourlyPrecipIn,Conditions,Clouds,dailyrainin,SoftwareType,DateUTC
2013-06-08 01:22:00,62.0,62.0,29.68,WSW,250,-999.0,-999.0,98,-99.99,,,-99.99,,2013-06-08 05:22:00,
2013-06-08 01:32:00,62.0,62.0,29.68,WSW,250,-999.0,-999.0,98,-99.99,,,-99.99,,2013-06-08 05:32:00,
2013-06-08 01:41:00,60.0,59.0,29.67,North,360,15.0,-999.0,97,-99.99,,,-99.99,,2013-06-08 05:41:00,
2013-06-08 02:01:00,61.0,60.0,29.65,NNE,30,9.0,-999.0,98,-99.99,,,-99.99,,2013-06-08 06:01:00,
2013-06-08 02:11:00,63.0,62.0,29.64,ESE,120,5.0,-999.0,98,-99.99,,,-99.99,,2013-06-08 06:11:00,
2013-06-08 02:21:00,63.0,63.0,29.63,SSE,160,13.0,-999.0,97,-99.99,,,-99.99,,2013-06-08 06:21:00,
2013-06-08 02:31:00,63.0,63.0,29.63,SSE,160,13.0,-999.0,97,-99.99,,,-99.99,,2013-06-08 06:31:00,
2013-06-08 02:42:00,63.0,63.0,29.62,SSE,160,13.0,-999.0,97,-99.99,,,-99.99,,2013-06-08 06:42:00,
2013-06-08 02:52:00,63.0,63.0,29.61,SSE,160,13.0,-999.0,98,-99.99,,,-99.99,,2013-06-08 06:52:00,
2013-06-08 03:01:00,63.0,63.0,29.61,SSE,160,13.0,-999.0,98,-99.99,,,-99.99,,2013-06-08 07:01:00,
2013-06-08 03:11:00,64.0,63.0,29.60,SSE,150,20.0,-999.0,98,-99.99,,,-99.99,,2013-06-08 07:11:00,
2013-06-08 03:21:00,64.0,63.0,29.59,SE,140,20.0,-999.0,98,-99.99,,,-99.99,,2013-06-08 07:21:00,
2013-06-08 03:32:00,64.0,63.0,29.59,SE,140,20.0,-999.0,98,-99.99,,,-99.99,,2013-06-08 07:32:00,
2013-06-08 03:42:00,64.0,63.0,29.57,SE,140,21.0,-999.0,97,-99.99,,,-99.99,,2013-06-08 07:42:00,
2013-06-08 03:52:00,64.0,63.0,29.56,SE,140,21.0,-999.0,97,-99.99,,,-99.99,,2013-06-08 07:52:00,
2013-06-08 04:01:00,64.0,63.0,29.56,SE,140,21.0,-999.0,97,-99.99,,,-99.99,,2013-06-08 08:01:00,
2013-06-08 04:11:00,64.0,63.0,29.55,SE,130,21.0,-999.0,97,-99.99,,,-99.99,,2013-06-08 08:11:00,
2013-06-08 04:22:00,64.0,63.0,29.54,SE,130,20.0,-999.0,97,-99.99,,,-99.99,,2013-06-08 08:22:00,
2013-06-08 04:31:00,61.0,60.0,29.54,NNW,340,9.0,-999.0,98,-99.99,,,-99.99,,2013-06-08 08:31:00,
2013-06-08 04:41:00,61.0,60.0,29.54,NNW,340,9.0,-999.0,98,-99.99,,,-99.99,,2013-06-08 08:41:00,
2013-06-08 04:52:00,60.0,60.0,29.53,North,350,23.0,28.0,98,-99.99,,,-99.99,,2013-06-08 08:52:00,
2013-06-08 05:01:00,60.0,60.0,29.53,North,350,23.0,28.0,98,-99.99,,,-99.99,,2013-06-08 09:01:00,
2013-06-08 05:11:00,59.0,58.0,29.52,North,350,25.0,29.0,97,-99.99,,,-99.99,,2013-06-08 09:11:00,
2013-06-08 05:22:00,58.0,57.0,29.52,North,350,28.0,29.0,97,-99.99,,,-99.99,,2013-06-08 09:22:00,
2013-06-08 05:33:00,58.0,57.0,29.52,North,350,28.0,29.0,97,-99.99,,,-99.99,,2013-06-08 09:33:00,
2013-06-08 05:42:00,57.0,57.0,29.52,North,350,29.0,31.0,97,-99.99,,,-99.99,,2013-06-08 09:42:00,
2013-06-08 05:52:00,57.0,56.0,29.52,North,350,28.0,31.0,98,-99.99,,,-99.99,,2013-06-08 09:52:00,
2013-06-08 06:02:00,57.0,56.0,29.52,North,350,28.0,31.0,98,-99.99,,,-99.99,,2013-06-08 10:02:00,
2013-06-08 06:12:00,57.0,56.0,29.52,North,350,26.0,30.0,98,-99.99,,,-99.99,,2013-06-08 10:12:00,
2013-06-08 06:22:00,57.0,56.0,29.54,North,350,29.0,31.0,98,-99.99,,,-99.99,,2013-06-08 10:22:00,
2013-06-08 06:32:00,57.0,56.0,29.54,North,350,29.0,31.0,98,-99.99,,,-99.99,,2013-06-08 10:32:00,
2013-06-08 06:42:00,57.0,56.0,29.54,North,350,31.0,33.0,98,-99.99,,,-99.99,,2013-06-08 10:42:00,
2013-06-08 06:52:00,57.0,56.0,29.56,North,350,31.0,34.0,96,-99.99,,,-99.99,,2013-06-08 10:52:00,
2013-06-08 07:02:00,57.0,56.0,29.56,North,350,31.0,34.0,96,-99.99,,,-99.99,,2013-06-08 11:02:00,
2013-06-08 07:11:00,57.0,55.0,29.56,North,350,31.0,34.0,94,-99.99,,,-99.99,,2013-06-08 11:11:00,
2013-06-08 07:21:00,57.0,55.0,29.57,North,350,31.0,34.0,92,-99.99,,,-99.99,,2013-06-08 11:21:00,
2013-06-08 07:31:00,57.0,55.0,29.57,North,350,31.0,34.0,92,-99.99,,,-99.99,,2013-06-08 11:31:00,
2013-06-08 07:42:00,57.0,54.0,29.59,NNW,330,28.0,32.0,91,-99.99,,,-99.99,,2013-06-08 11:42:00,
2013-06-08 07:51:00,57.0,54.0,29.62,NW,320,25.0,30.0,90,-99.99,,,-99.99,,2013-06-08 11:51:00,
2013-06-08 08:01:00,57.0,54.0,29.62,NW,320,25.0,30.0,90,-99.99,,,-99.99,,2013-06-08 12:01:00,
2013-06-08 08:21:00,57.0,54.0,29.67,NW,320,20.0,26.0,90,-99.99,,,-99.99,,2013-06-08 12:21:00,
2013-06-08 08:31:00,58.0,54.0,29.67,NW,320,23.0,29.0,86,-99.99,,,-99.99,,2013-06-08 12:31:00,
2013-06-08 08:42:00,58.0,54.0,29.67,NW,320,23.0,29.0,86,-99.99,,,-99.99,,2013-06-08 12:42:00,
2013-06-08 08:52:00,58.0,54.0,29.70,NW,320,21.0,29.0,85,-99.99,,,-99.99,,2013-06-08 12:52:00,
2013-06-08 09:02:00,58.0,54.0,29.70,NW,320,21.0,29.0,85,-99.99,,,-99.99,,2013-06-08 13:02:00,
2013-06-08 09:11:00,58.0,53.0,29.71,NW,320,22.0,28.0,83,-99.99,,,-99.99,,2013-06-08 13:11:00,
2013-06-08 09:21:00,59.0,54.0,29.72,NW,320,20.0,25.0,82,-99.99,,,-99.99,,2013-06-08 13:21:00,
2013-06-08 09:32:00,59.0,54.0,29.73,NW,310,23.0,31.0,82,-99.99,,,-99.99,,2013-06-08 13:32:00,
2013-06-08 09:41:00,59.0,54.0,29.73,NW,310,23.0,31.0,82,-99.99,,,-99.99,,2013-06-08 13:41:00,
2013-06-08 09:52:00,59.0,53.0,29.77,WNW,300,20.0,25.0,81,-99.99,,,-99.99,,2013-06-08 13:52:00,
2013-06-08 10:01:00,59.0,53.0,29.77,WNW,300,20.0,25.0,81,-99.99,,,-99.99,,2013-06-08 14:01:00,
2013-06-08 10:11:00,59.0,54.0,29.77,WNW,300,21.0,23.0,81,-99.99,,,-99.99,,2013-06-08 14:11:00,
2013-06-08 10:21:00,60.0,54.0,29.78,WNW,300,25.0,30.0,81,-99.99,,,-99.99,,2013-06-08 14:21:00,
2013-06-08 10:32:00,60.0,54.0,29.78,WNW,300,25.0,30.0,81,-99.99,,,-99.99,,2013-06-08 14:32:00,
2013-06-08 10:42:00,61.0,54.0,29.79,NW,310,18.0,23.0,79,-99.99,,,-99.99,,2013-06-08 14:42:00,
2013-06-08 10:51:00,62.0,54.0,29.79,WNW,290,21.0,26.0,77,-99.99,,,-99.99,,2013-06-08 14:51:00,
2013-06-08 11:01:00,62.0,54.0,29.79,WNW,290,21.0,26.0,77,-99.99,,,-99.99,,2013-06-08 15:01:00,
2013-06-08 11:11:00,63.0,55.0,29.81,WNW,290,18.0,23.0,75,-99.99,,,-99.99,,2013-06-08 15:11:00,
2013-06-08 11:21:00,64.0,56.0,29.81,WNW,300,20.0,22.0,73,-99.99,,,-99.99,,2013-06-08 15:21:00,
2013-06-08 11:32:00,65.0,56.0,29.82,West,270,20.0,25.0,72,-99.99,,,-99.99,,2013-06-08 15:32:00,
2013-06-08 11:42:00,65.0,56.0,29.82,West,270,20.0,25.0,72,-99.99,,,-99.99,,2013-06-08 15:42:00,
2013-06-08 11:53:00,61.0,56.0,29.83,SW,230,21.0,22.0,82,-99.99,,,-99.99,,2013-06-08 15:53:00,
2013-06-08 12:02:00,61.0,56.0,29.83,SW,230,21.0,22.0,82,-99.99,,,-99.99,,2013-06-08 16:02:00,
2013-06-08 12:12:00,61.0,56.0,29.84,WSW,240,22.0,26.0,82,-99.99,,,-99.99,,2013-06-08 16:12:00,
2013-06-08 12:22:00,61.0,56.0,29.84,WSW,240,26.0,29.0,84,-99.99,,,-99.99,,2013-06-08 16:22:00,
2013-06-08 12:32:00,61.0,56.0,29.84,WSW,240,26.0,29.0,84,-99.99,,,-99.99,,2013-06-08 16:32:00,
2013-06-08 12:42:00,61.0,56.0,29.85,WSW,240,25.0,28.0,84,-99.99,,,-99.99,,2013-06-08 16:42:00,
2013-06-08 12:53:00,61.0,56.0,29.85,WSW,250,21.0,24.0,84,-99.99,,,-99.99,,2013-06-08 16:53:00,
2013-06-08 13:02:00,61.0,56.0,29.85,WSW,250,21.0,24.0,84,-99.99,,,-99.99,,2013-06-08 17:02:00,
2013-06-08 13:11:00,61.0,56.0,29.85,WSW,250,22.0,25.0,85,-99.99,,,-99.99,,2013-06-08 17:11:00,
2013-06-08 13:22:00,61.0,56.0,29.85,West,260,23.0,25.0,85,-99.99,,,-99.99,,2013-06-08 17:22:00,
2013-06-08 13:31:00,61.0,56.0,29.85,West,260,23.0,25.0,85,-99.99,,,-99.99,,2013-06-08 17:31:00,
2013-06-08 13:42:00,62.0,57.0,29.85,West,260,23.0,25.0,84,-99.99,,,-99.99,,2013-06-08 17:42:00,
2013-06-08 13:52:00,62.0,57.0,29.85,WSW,250,24.0,28.0,84,-99.99,,,-99.99,,2013-06-08 17:52:00,
2013-06-08 14:01:00,62.0,57.0,29.85,WSW,250,24.0,28.0,84,-99.99,,,-99.99,,2013-06-08 18:01:00,
2013-06-08 14:11:00,62.0,57.0,29.85,WSW,250,25.0,28.0,84,-99.99,,,-99.99,,2013-06-08 18:11:00,
2013-06-08 14:21:00,62.0,58.0,29.86,West,260,24.0,28.0,84,-99.99,,,-99.99,,2013-06-08 18:21:00,
2013-06-08 14:31:00,63.0,58.0,29.87,WSW,250,24.0,26.0,83,-99.99,,,-99.99,,2013-06-08 18:31:00,
2013-06-08 14:41:00,63.0,58.0,29.87,WSW,250,24.0,26.0,83,-99.99,,,-99.99,,2013-06-08 18:41:00,
2013-06-08 14:52:00,63.0,58.0,29.86,West,260,23.0,25.0,83,-99.99,,,-99.99,,2013-06-08 18:52:00,
2013-06-08 15:01:00,63.0,58.0,29.86,West,260,23.0,25.0,83,-99.99,,,-99.99,,2013-06-08 19:01:00,
2013-06-08 15:21:00,64.0,58.0,29.86,West,260,23.0,25.0,82,-99.99,,,-99.99,,2013-06-08 19:21:00,
2013-06-08 15:31:00,64.0,58.0,29.86,West,260,23.0,25.0,82,-99.99,,,-99.99,,2013-06-08 19:31:00,
2013-06-08 15:41:00,64.0,58.0,29.88,WSW,250,22.0,25.0,82,-99.99,,,-99.99,,2013-06-08 19:41:00,
2013-06-08 15:52:00,63.0,59.0,29.88,WSW,250,18.0,21.0,84,-99.99,,,-99.99,,2013-06-08 19:52:00,
2013-06-08 16:01:00,63.0,59.0,29.88,WSW,250,18.0,21.0,84,-99.99,,,-99.99,,2013-06-08 20:01:00,
2013-06-08 16:11:00,64.0,59.0,29.88,WSW,250,18.0,21.0,83,-99.99,,,-99.99,,2013-06-08 20:11:00,
2013-06-08 16:21:00,63.0,59.0,29.89,WSW,250,14.0,16.0,84,-99.99,,,-99.99,,2013-06-08 20:21:00,
2013-06-08 16:31:00,63.0,59.0,29.88,WSW,250,14.0,14.0,84,-99.99,,,-99.99,,2013-06-08 20:31:00,
2013-06-08 16:42:00,63.0,59.0,29.88,WSW,250,14.0,14.0,84,-99.99,,,-99.99,,2013-06-08 20:42:00,
2013-06-08 16:52:00,64.0,59.0,29.88,WSW,240,11.0,13.0,82,-99.99,,,-99.99,,2013-06-08 20:52:00,
2013-06-08 17:01:00,64.0,59.0,29.88,WSW,240,11.0,13.0,82,-99.99,,,-99.99,,2013-06-08 21:01:00,
2013-06-08 17:11:00,64.0,59.0,29.89,WSW,250,14.0,16.0,83,-99.99,,,-99.99,,2013-06-08 21:11:00,
2013-06-08 17:22:00,66.0,60.0,29.89,WSW,250,11.0,14.0,81,-99.99,,,-99.99,,2013-06-08 21:22:00,
2013-06-08 17:32:00,66.0,60.0,29.89,WSW,250,11.0,14.0,81,-99.99,,,-99.99,,2013-06-08 21:32:00,
2013-06-08 17:43:00,67.0,60.0,29.89,West,260,20.0,23.0,80,-99.99,,,-99.99,,2013-06-08 21:43:00,
2013-06-08 17:52:00,66.0,60.0,29.89,WSW,250,16.0,18.0,81,-99.99,,,-99.99,,2013-06-08 21:52:00,
2013-06-08 18:02:00,66.0,60.0,29.89,WSW,250,16.0,18.0,81,-99.99,,,-99.99,,2013-06-08 22:02:00,
2013-06-08 18:12:00,67.0,61.0,29.90,WSW,250,18.0,20.0,79,-99.99,,,-99.99,,2013-06-08 22:12:00,
2013-06-08 18:22:00,66.0,60.0,29.90,WSW,250,15.0,16.0,82,-99.99,,,-99.99,,2013-06-08 22:22:00,
2013-06-08 18:33:00,67.0,61.0,29.91,WSW,240,15.0,16.0,80,-99.99,,,-99.99,,2013-06-08 22:33:00,
2013-06-08 18:42:00,67.0,61.0,29.91,WSW,240,15.0,16.0,80,-99.99,,,-99.99,,2013-06-08 22:42:00,
2013-06-08 18:52:00,67.0,61.0,29.92,SW,230,14.0,15.0,82,-99.99,,,-99.99,,2013-06-08 22:52:00,
2013-06-08 19:01:00,67.0,61.0,29.92,SW,230,14.0,15.0,82,-99.99,,,-99.99,,2013-06-08 23:01:00,
2013-06-08 19:21:00,66.0,61.0,29.93,SW,230,10.0,11.0,85,-99.99,,,-99.99,,2013-06-08 23:21:00,
2013-06-08 19:31:00,66.0,61.0,29.93,SW,230,10.0,11.0,85,-99.99,,,-99.99,,2013-06-08 23:31:00,
2013-06-08 19:41:00,66.0,61.0,29.93,SW,230,10.0,13.0,85,-99.99,,,-99.99,,2013-06-08 23:41:00,
2013-06-08 19:52:00,66.0,61.0,29.94,SW,220,8.0,10.0,85,-99.99,,,-99.99,,2013-06-08 23:52:00,
2013-06-08 20:01:00,66.0,61.0,29.94,SW,220,8.0,10.0,85,-99.99,,,-99.99,,2013-06-09 00:01:00,
2013-06-08 20:11:00,65.0,61.0,29.94,SW,230,7.0,10.0,87,-99.99,,,-99.99,,2013-06-09 00:11:00,
2013-06-08 20:21:00,65.0,61.0,29.94,SW,230,7.0,10.0,87,-99.99,,,-99.99,,2013-06-09 00:21:00,
2013-06-08 20:31:00,65.0,61.0,29.94,SW,230,7.0,10.0,87,-99.99,,,-99.99,,2013-06-09 00:31:00,
2013-06-08 20:41:00,65.0,61.0,29.94,SW,230,7.0,10.0,87,-99.99,,,-99.99,,2013-06-09 00:41:00,